[[{"header":{"parameterUnit":"m.s-1","parameterCategory":1,"la1":30.2991,"la2":30.254,"lo1":-89.0895,"lo2":-89.0444,"dy":0.0017,"dx":0.0017,"nx":28,"ny":28,"refTime":"2024-05-01T03:00:00:Z","depth":0,"parameterNumber":2,"parameterNumberName":"U-component_of_WINDS"},"data":[0,0,0,0,0,0,0,0,0,0,0,0,0,0,0,0,0,0,0,0,0,0,0,0,0,0,0,0,0,0,0,0,0,0,0,0,0,0,0,0,0,0,0,0,0,0,0,0,0,0,0,0,0,0,0,0,0,0,-1.5207,-1.5206,0,-1.5149,-1.5148,-1.5147,-1.5097,-1.5096,-1.5095,-1.5095,-1.5034,-1.5033,-1.5032,0,0,0,0,0,0,0,0,0,0,0,0,0,-1.5274,-1.5273,-1.5207,-1.5206,-1.5206,-1.5149,-1.5148,-1.5147,-1.5097,-1.5096,-1.5095,-1.5095,-1.5035,-1.5033,-1.5032,0,0,0,0,0,0,0,0,0,0,0,0,0,-1.5233,-1.5272,-1.5207,-1.5173,-1.517,-1.5149,-1.5148,-1.5147,-1.5097,-1.5096,-1.5095,-1.5094,-1.5035,-1.5033,-1.5032,-1.5039,0,0,-1.5027,-1.5026,0,0,0,0,0,0,0,0,-1.5235,-1.5231,-1.5179,-1.5176,-1.5172,-1.5129,-1.5149,-1.5111,-1.5097,-1.5125,-1.5095,-1.5094,-1.5066,-1.5062,-1.5053,-1.5036,-1.5034,-1.5027,-1.5026,-1.5025,-1.5025,0,0,0,0,0,0,0,-1.5238,-1.5233,-1.5184,-1.5178,-1.5174,-1.5161,-1.5154,-1.5142,-1.5101,-1.5122,-1.5118,-1.5112,-1.5064,-1.5055,-1.5051,-1.5033,-1.5027,-1.5025,-1.5024,-1.5024,-1.5019,-1.502,0,0,0,0,0,0,-1.5246,-1.5235,-1.5186,-1.5182,-1.5202,-1.5161,-1.5153,-1.5144,-1.5101,-1.5094,-1.5113,-1.511,-1.5058,-1.5053,-1.5049,-1.5054,-1.5025,-1.5024,-1.5023,-1.5018,-1.5019,-1.502,0,0,0,0,0,0,-1.5248,-1.5242,-1.5188,-1.5208,-1.52,-1.516,-1.515,-1.5143,-1.5133,-1.5094,-1.5086,-1.5111,-1.5057,-1.5051,-1.5042,-1.5051,-1.5023,-1.5021,-1.5017,-1.5018,-1.5019,-1.5065,0,0,0,0,0,0,-1.525,-1.5243,-1.5246,-1.5208,-1.5199,-1.5183,-1.5151,-1.5142,-1.5131,-1.5126,-1.509,-1.5083,-1.5056,-1.5045,-1.504,-1.5049,-1.502,-1.5016,-1.5018,-1.5019,-1.5063,-1.5068,-1.5073,0,0,0,0,0,-1.5253,-1.5261,-1.5246,-1.5241,-1.5202,-1.5183,-1.5178,-1.5147,-1.5132,-1.5134,-1.5109,-1.5084,-1.5051,-1.5044,-1.5039,-1.5047,-1.5015,-1.5017,-1.5019,-1.5061,-1.5067,-1.5073,0,0,0,0,0,0,-1.5301,-1.5256,-1.5239,-1.5235,-1.5213,-1.5175,-1.5176,-1.5154,-1.5136,-1.5133,-1.5094,-1.5087,-1.5082,-1.5063,-1.5056,-1.5052,-1.503,-1.5031,-1.5064,-1.5069,-1.5074,-1.5078,-1.5019,0,0,0,0,0,-1.5311,-1.53,-1.5261,-1.5262,-1.5252,-1.5216,-1.5207,-1.5185,-1.5161,-1.5151,-1.5125,-1.5102,-1.5087,-1.5077,-1.5061,-1.506,-1.5051,-1.5063,-1.5068,-1.5072,-1.5073,-1.5071,-1.5076,-1.5026,-1.5026,-1.5026,0,0,-1.5332,-1.5306,-1.5301,-1.5271,-1.5251,-1.5241,-1.5209,-1.5199,-1.519,-1.5149,-1.5139,-1.5119,-1.5091,-1.5086,-1.5083,-1.5071,-1.5085,-1.5075,-1.5078,-1.5077,-1.5074,-1.5078,-1.5083,-1.5027,-1.5027,-1.5027,0,0,-1.5364,-1.5344,-1.5342,-1.5323,-1.5294,-1.527,-1.527,-1.5235,-1.522,-1.5209,-1.5178,-1.5167,-1.5141,-1.5122,-1.5109,-1.5135,-1.5112,-1.5131,-1.5156,-1.5154,-1.5158,-1.5161,-1.517,-1.5173,-1.5132,-1.5132,-1.5132,0,-1.5394,-1.5377,-1.5344,-1.5336,-1.5323,-1.5286,-1.5283,-1.5267,-1.5234,-1.5226,-1.5213,-1.5179,-1.5158,-1.5148,-1.5154,-1.5145,-1.5143,-1.5134,-1.516,-1.5163,-1.5166,-1.5173,-1.5177,-1.5135,-1.5134,-1.5134,-1.5134,0,-1.5414,-1.5403,-1.5405,-1.5374,-1.5362,-1.5356,-1.5322,-1.5314,-1.5293,-1.527,-1.5259,-1.5232,-1.521,-1.5206,-1.5185,-1.5193,-1.5186,-1.5168,-1.5145,-1.5174,-1.518,-1.5183,-1.5138,-1.5137,-1.5137,-1.5136,0,0,-1.5475,-1.5426,-1.5427,-1.5413,-1.5378,-1.5368,-1.5361,-1.5339,-1.5332,-1.5311,-1.5304,-1.5283,-1.5265,-1.5251,-1.5228,-1.5226,-1.5248,-1.5208,-1.5206,-1.5215,-1.5254,-1.5267,-1.5271,-1.5232,-1.5233,-1.5233,-1.5256,0,-1.5501,-1.5487,-1.5457,-1.5451,-1.544,-1.5405,-1.5398,-1.5376,-1.5355,-1.5342,-1.5319,-1.5304,-1.5283,-1.5274,-1.5271,-1.5246,-1.5255,-1.5244,-1.5225,-1.5224,-1.5232,-1.5275,-1.5289,-1.5312,-1.5258,-1.5258,-1.5259,0,-1.553,-1.5511,-1.5504,-1.547,-1.5464,-1.5459,-1.5436,-1.5425,-1.5399,-1.5383,-1.5367,-1.5342,-1.5332,-1.5312,-1.5298,-1.5291,-1.5282,-1.5268,-1.5268,-1.5265,-1.5243,-1.5271,-1.5318,-1.5321,-1.5263,-1.5262,-1.5262,0,-1.5574,-1.5547,-1.5539,-1.5528,-1.5488,-1.5485,-1.5468,-1.5441,-1.543,-1.541,-1.5402,-1.5381,-1.537,-1.5354,-1.5324,-1.5312,-1.5313,-1.529,-1.5299,-1.53,-1.53,-1.53,-1.5345,-1.5296,-1.5296,-1.5295,-1.5295,0,-1.5606,-1.5603,-1.5558,-1.5554,-1.5549,-1.5515,-1.5512,-1.5492,-1.5468,-1.5459,-1.5427,-1.5419,-1.5379,-1.5367,-1.5343,-1.5334,-1.5329,-1.5316,-1.531,-1.5319,-1.532,-1.5311,-1.5309,-1.5296,-1.5296,-1.5296,-1.5296,0,-1.5654,-1.5624,-1.5613,-1.5576,-1.5567,-1.5566,-1.5534,-1.5528,-1.5505,-1.5493,-1.5488,-1.5452,-1.5435,-1.5404,-1.5378,-1.5362,-1.5358,-1.5348,-1.5367,-1.5363,-1.5373,-1.5373,-1.5413,-1.5417,-1.5366,-1.5367,-1.5367,0,-1.5677,-1.5674,-1.5636,-1.5628,-1.5612,-1.5599,-1.5587,-1.5553,-1.5542,-1.5512,-1.551,-1.549,-1.5473,-1.5447,-1.5419,-1.5399,-1.5387,-1.5403,-1.5384,-1.5392,-1.5386,-1.5387,-1.5386,-1.5407,-1.5407,-1.5408,-1.5408,0,-1.5719,-1.5704,-1.5688,-1.5667,-1.5654,-1.5636,-1.5616,-1.561,-1.5572,-1.5561,-1.5543,-1.553,-1.5504,-1.5485,-1.5461,-1.5443,-1.5419,-1.5415,-1.5416,-1.5424,-1.5435,-1.5429,-1.5378,-1.5414,-1.5413,-1.5413,-1.5413,-1.5412,-1.5754,-1.575,-1.5723,-1.5706,-1.5687,-1.567,-1.5662,-1.5638,-1.5623,-1.5599,-1.558,-1.5564,-1.5537,-1.5502,-1.5486,-1.5473,-1.5462,-1.5463,-1.5463,-1.5464,-1.5467,-1.5438,-1.5468,-1.5468,-1.5468,-1.5468,-1.5468,0,-1.5794,-1.5775,-1.576,-1.5733,-1.572,-1.5699,-1.5676,-1.5666,-1.5653,-1.563,-1.5614,-1.5593,-1.5575,-1.5545,-1.5524,-1.5519,-1.5507,-1.5514,-1.5514,-1.551,-1.5479,-1.548,-1.5524,-1.5524,-1.5524,-1.5524,-1.5524,-1.5524,-1.5814,-1.5805,-1.5787,-1.5768,-1.5749,-1.5733,-1.5721,-1.5704,-1.5686,-1.5665,-1.5649,-1.563,-1.5604,-1.5581,-1.5563,-1.5555,-1.5548,-1.5558,-1.5547,-1.5518,-1.5512,-1.5507,-1.5508,-1.5557,-1.5557,-1.5579,-1.5579,-1.5579]},{"header":{"parameterUnit":"m.s-1","parameterCategory":1,"la1":30.2991,"la2":30.254,"lo1":-89.0895,"lo2":-89.0444,"dy":0.0017,"dx":0.0017,"nx":28,"ny":28,"refTime":"2024-05-01T03:00:00:Z","depth":0,"parameterNumber":3,"parameterNumberName":"V-component_of_WINDS"},"data":[0,0,0,0,0,0,0,0,0,0,0,0,0,0,0,0,0,0,0,0,0,0,0,0,0,0,0,0,0,0,0,0,0,0,0,0,0,0,0,0,0,0,0,0,0,0,0,0,0,0,0,0,0,0,0,0,0,0,2.3578,2.3578,0,2.3568,2.3568,2.3568,2.3542,2.3542,2.3541,2.354,2.353,2.353,2.3531,0,0,0,0,0,0,0,0,0,0,0,0,0,2.3573,2.3573,2.3578,2.3578,2.3578,2.3569,2.3568,2.3568,2.3542,2.3542,2.3541,2.354,2.353,2.353,2.3531,0,0,0,0,0,0,0,0,0,0,0,0,0,2.357,2.3573,2.3578,2.3564,2.3562,2.3569,2.3568,2.3568,2.3542,2.3542,2.3541,2.354,2.353,2.353,2.3531,2.355,0,0,2.3532,2.3532,0,0,0,0,0,0,0,0,2.3571,2.3571,2.3566,2.3564,2.3563,2.3556,2.3563,2.3562,2.3543,2.355,2.354,2.3539,2.3539,2.3539,2.3539,2.3549,2.3549,2.3532,2.3532,2.3532,2.3532,0,0,0,0,0,0,0,2.3571,2.3571,2.3574,2.3566,2.3564,2.3557,2.3556,2.3563,2.3549,2.3549,2.3547,2.3547,2.3538,2.3539,2.3538,2.3549,2.3532,2.3532,2.3532,2.3532,2.3576,2.3576,0,0,0,0,0,0,2.3573,2.3571,2.3574,2.3574,2.3565,2.3558,2.3557,2.3559,2.3549,2.3547,2.3547,2.3545,2.3538,2.3538,2.3538,2.356,2.3532,2.3533,2.3533,2.3575,2.3576,2.3577,0,0,0,0,0,0,2.3573,2.3574,2.3575,2.3572,2.3572,2.3559,2.3562,2.3559,2.3559,2.3548,2.3545,2.355,2.3538,2.3537,2.3547,2.356,2.3533,2.3533,2.3574,2.3575,2.3576,2.3605,0,0,0,0,0,0,2.3573,2.3574,2.3581,2.3572,2.3572,2.3584,2.3562,2.356,2.356,2.3558,2.355,2.3548,2.3537,2.3547,2.3548,2.356,2.3533,2.3572,2.3574,2.3576,2.3603,2.3607,2.3611,0,0,0,0,0,2.3573,2.3589,2.3581,2.3582,2.3581,2.3585,2.3585,2.3573,2.3561,2.3568,2.3561,2.3548,2.3558,2.3548,2.3549,2.3561,2.3572,2.3574,2.3576,2.3601,2.3607,2.3611,0,0,0,0,0,0,2.3599,2.3588,2.3579,2.3593,2.359,2.3581,2.3589,2.3578,2.3579,2.3576,2.3561,2.3559,2.3572,2.3567,2.3556,2.358,2.3563,2.3565,2.3582,2.3587,2.3591,2.3592,2.3534,0,0,0,0,0,2.3606,2.3611,2.3601,2.3614,2.3613,2.3602,2.3603,2.3594,2.3591,2.3589,2.3583,2.358,2.3582,2.3584,2.3586,2.3602,2.3601,2.3611,2.3615,2.3619,2.3621,2.363,2.3635,2.3584,2.3584,2.3583,0,0,2.3621,2.3616,2.3619,2.3619,2.3616,2.3621,2.3601,2.3607,2.3611,2.359,2.3599,2.3595,2.359,2.3604,2.3609,2.36,2.3635,2.3621,2.3624,2.3624,2.3632,2.3637,2.3642,2.3585,2.3585,2.3584,0,0,2.3651,2.3648,2.3659,2.3656,2.3652,2.3645,2.3647,2.364,2.3636,2.3645,2.363,2.3634,2.3639,2.3637,2.3636,2.3667,2.3655,2.3668,2.3689,2.3698,2.3702,2.3706,2.3717,2.3721,2.367,2.367,2.367,0,2.3671,2.3678,2.3665,2.3673,2.3674,2.3656,2.3667,2.3665,2.3662,2.3662,2.3653,2.3659,2.3655,2.3668,2.3676,2.3676,2.3678,2.3669,2.3703,2.3706,2.3709,2.372,2.3724,2.3672,2.3672,2.3672,2.3671,0,2.3702,2.3708,2.3717,2.3715,2.3717,2.3726,2.3715,2.3718,2.3709,2.3703,2.3713,2.3707,2.3708,2.371,2.3701,2.3722,2.3717,2.3705,2.3688,2.3716,2.3726,2.373,2.3674,2.3674,2.3673,2.3673,0,0,2.3748,2.374,2.3743,2.3743,2.3737,2.3741,2.375,2.3751,2.3755,2.3753,2.376,2.3765,2.3755,2.3754,2.3745,2.3753,2.3778,2.374,2.374,2.3748,2.3802,2.3811,2.3816,2.3771,2.3771,2.3772,2.3803,0,2.3777,2.3792,2.3781,2.3798,2.3803,2.3787,2.3795,2.3792,2.3787,2.3791,2.3784,2.3788,2.3773,2.3773,2.378,2.3774,2.3789,2.3771,2.3777,2.3778,2.3779,2.3821,2.3831,2.386,2.3806,2.3807,2.3807,0,2.3813,2.3814,2.3831,2.3826,2.3828,2.3835,2.3836,2.3839,2.3837,2.3832,2.3832,2.3821,2.383,2.3813,2.3825,2.3813,2.3815,2.3812,2.3813,2.3813,2.3794,2.3823,2.3869,2.3874,2.3813,2.3813,2.3812,0,2.3845,2.3851,2.3862,2.3862,2.3856,2.3861,2.3859,2.3855,2.3857,2.3858,2.3859,2.386,2.3861,2.3862,2.3852,2.3841,2.3866,2.3848,2.3862,2.3863,2.3868,2.3868,2.3916,2.3869,2.3869,2.3869,2.3869,0,2.3879,2.389,2.3877,2.3884,2.3896,2.3884,2.3897,2.3893,2.389,2.3896,2.3881,2.3887,2.3873,2.3878,2.387,2.3881,2.3882,2.3878,2.3876,2.388,2.388,2.3881,2.3879,2.387,2.387,2.3869,2.3869,0,2.3917,2.3908,2.392,2.3913,2.3912,2.3922,2.3916,2.3922,2.3916,2.3924,2.3925,2.3915,2.392,2.391,2.3913,2.3908,2.3924,2.3918,2.3925,2.3924,2.3939,2.3938,2.3989,2.3995,2.3944,2.3945,2.3945,0,2.3939,2.3948,2.3943,2.3946,2.3945,2.395,2.3952,2.394,2.3943,2.3941,2.3948,2.3951,2.3954,2.3962,2.3955,2.3958,2.3952,2.397,2.3953,2.3957,2.3953,2.3953,2.3954,2.3974,2.3974,2.3975,2.3975,0,2.398,2.3975,2.3979,2.3982,2.3985,2.3986,2.3986,2.3989,2.3977,2.3981,2.3986,2.3988,2.3992,2.3996,2.3997,2.3994,2.3983,2.3981,2.3985,2.3989,2.3993,2.3991,2.3935,2.398,2.3979,2.3979,2.3979,2.3979,2.4011,2.4018,2.4016,2.4021,2.402,2.4021,2.4027,2.4022,2.4026,2.4028,2.4021,2.4028,2.4026,2.4026,2.4025,2.403,2.4022,2.4027,2.4029,2.403,2.4033,2.3992,2.403,2.403,2.403,2.403,2.403,0,2.4052,2.405,2.4054,2.4055,2.4059,2.4049,2.4049,2.4053,2.4059,2.4058,2.4061,2.4067,2.4071,2.4065,2.4068,2.4074,2.4069,2.4075,2.4075,2.4074,2.404,2.4037,2.4079,2.4079,2.4079,2.4079,2.4079,2.4079,2.4073,2.4085,2.4081,2.4092,2.409,2.4097,2.4098,2.4099,2.4098,2.4106,2.411,2.4106,2.4103,2.4106,2.4109,2.4107,2.4109,2.4117,2.4114,2.4081,2.4077,2.4072,2.4069,2.4118,2.4118,2.4148,2.4148,2.4148]}]]